Location: Gallinara
(44.0333°N, 8.2333°E)
Time: 01:01:04
(UTC+00:00)

FALCON 9 DEB - Pass Details

Date: 25 September 2020
Orbit: 426 x 440 km, 53.0° (Epoch: 31 October)

Event Time Altitude Azimuth Distance (km) Brightness Sun altitude
Exits shadow 03:19:58 40° 358° (N) 643 4.0 -21.6°
Drops below altitude 10° 03:22:48 10° 47° (NE) 1,533 6.9 -21.1°
Sets 03:25:00 0° 54° (NE) 2,405 8.3 -20.8°
